Index of /20260501/WXO-DD/model_rdps/10km/18/045
Name Last modified Size Description
Parent Directory -
20260501T18Z_MSC_RDPS_AbsoluteVorticity_IsbL-0250_RLatLon0.09_PT045H.grib2 2026-05-01 20:55 614K
20260501T18Z_MSC_RDPS_AbsoluteVorticity_IsbL-0500_RLatLon0.09_PT045H.grib2 2026-05-01 20:55 568K
20260501T18Z_MSC_RDPS_AbsoluteVorticity_IsbL-0700_RLatLon0.09_PT045H.grib2 2026-05-01 20:55 617K
20260501T18Z_MSC_RDPS_AbsoluteVorticity_IsbL-0850_RLatLon0.09_PT045H.grib2 2026-05-01 20:55 789K
20260501T18Z_MSC_RDPS_AirTemp_AGL-120m_RLatLon0.09_PT045H.grib2 2026-05-01 20:55 385K
20260501T18Z_MSC_RDPS_AirTemp_AGL-2m_RLatLon0.09_PT045H.grib2 2026-05-01 20:55 640K
20260501T18Z_MSC_RDPS_AirTemp_AGL-40m_RLatLon0.09_PT045H.grib2 2026-05-01 20:55 398K
20260501T18Z_MSC_RDPS_AirTemp_AGL-80m_RLatLon0.09_PT045H.grib2 2026-05-01 20:55 392K
20260501T18Z_MSC_RDPS_AirTemp_IsbL-0001_RLatLon0.09_PT045H.grib2 2026-05-01 20:55 320K
20260501T18Z_MSC_RDPS_AirTemp_IsbL-0005_RLatLon0.09_PT045H.grib2 2026-05-01 20:55 288K
20260501T18Z_MSC_RDPS_AirTemp_IsbL-0010_RLatLon0.09_PT045H.grib2 2026-05-01 20:55 391K
20260501T18Z_MSC_RDPS_AirTemp_IsbL-0020_RLatLon0.09_PT045H.grib2 2026-05-01 20:55 413K
20260501T18Z_MSC_RDPS_AirTemp_IsbL-0030_RLatLon0.09_PT045H.grib2 2026-05-01 20:55 339K
20260501T18Z_MSC_RDPS_AirTemp_IsbL-0050_RLatLon0.09_PT045H.grib2 2026-05-01 20:55 315K
20260501T18Z_MSC_RDPS_AirTemp_IsbL-0100_RLatLon0.09_PT045H.grib2 2026-05-01 20:55 423K
20260501T18Z_MSC_RDPS_AirTemp_IsbL-0150_RLatLon0.09_PT045H.grib2 2026-05-01 20:55 416K
20260501T18Z_MSC_RDPS_AirTemp_IsbL-0175_RLatLon0.09_PT045H.grib2 2026-05-01 20:55 405K
20260501T18Z_MSC_RDPS_AirTemp_IsbL-0200_RLatLon0.09_PT045H.grib2 2026-05-01 20:55 411K
20260501T18Z_MSC_RDPS_AirTemp_IsbL-0225_RLatLon0.09_PT045H.grib2 2026-05-01 20:55 416K
20260501T18Z_MSC_RDPS_AirTemp_IsbL-0250_RLatLon0.09_PT045H.grib2 2026-05-01 20:55 423K
20260501T18Z_MSC_RDPS_AirTemp_IsbL-0275_RLatLon0.09_PT045H.grib2 2026-05-01 20:55 403K
20260501T18Z_MSC_RDPS_AirTemp_IsbL-0300_RLatLon0.09_PT045H.grib2 2026-05-01 20:55 410K
20260501T18Z_MSC_RDPS_AirTemp_IsbL-0350_RLatLon0.09_PT045H.grib2 2026-05-01 20:55 424K
20260501T18Z_MSC_RDPS_AirTemp_IsbL-0400_RLatLon0.09_PT045H.grib2 2026-05-01 20:55 426K
20260501T18Z_MSC_RDPS_AirTemp_IsbL-0450_RLatLon0.09_PT045H.grib2 2026-05-01 20:55 433K
20260501T18Z_MSC_RDPS_AirTemp_IsbL-0500_RLatLon0.09_PT045H.grib2 2026-05-01 20:55 409K
20260501T18Z_MSC_RDPS_AirTemp_IsbL-0550_RLatLon0.09_PT045H.grib2 2026-05-01 20:55 425K
20260501T18Z_MSC_RDPS_AirTemp_IsbL-0600_RLatLon0.09_PT045H.grib2 2026-05-01 20:55 440K
20260501T18Z_MSC_RDPS_AirTemp_IsbL-0650_RLatLon0.09_PT045H.grib2 2026-05-01 20:55 454K
20260501T18Z_MSC_RDPS_AirTemp_IsbL-0700_RLatLon0.09_PT045H.grib2 2026-05-01 20:55 478K
20260501T18Z_MSC_RDPS_AirTemp_IsbL-0750_RLatLon0.09_PT045H.grib2 2026-05-01 20:55 518K
20260501T18Z_MSC_RDPS_AirTemp_IsbL-0800_RLatLon0.09_PT045H.grib2 2026-05-01 20:55 570K
20260501T18Z_MSC_RDPS_AirTemp_IsbL-0850_RLatLon0.09_PT045H.grib2 2026-05-01 20:55 633K
20260501T18Z_MSC_RDPS_AirTemp_IsbL-0875_RLatLon0.09_PT045H.grib2 2026-05-01 20:55 658K
20260501T18Z_MSC_RDPS_AirTemp_IsbL-0900_RLatLon0.09_PT045H.grib2 2026-05-01 20:55 539K
20260501T18Z_MSC_RDPS_AirTemp_IsbL-0925_RLatLon0.09_PT045H.grib2 2026-05-01 20:55 667K
20260501T18Z_MSC_RDPS_AirTemp_IsbL-0950_RLatLon0.09_PT045H.grib2 2026-05-01 20:55 535K
20260501T18Z_MSC_RDPS_AirTemp_IsbL-0970_RLatLon0.09_PT045H.grib2 2026-05-01 20:55 530K
20260501T18Z_MSC_RDPS_AirTemp_IsbL-0985_RLatLon0.09_PT045H.grib2 2026-05-01 20:55 520K
20260501T18Z_MSC_RDPS_AirTemp_IsbL-1000_RLatLon0.09_PT045H.grib2 2026-05-01 20:55 506K
20260501T18Z_MSC_RDPS_AirTemp_IsbL-1015_RLatLon0.09_PT045H.grib2 2026-05-01 20:55 505K
20260501T18Z_MSC_RDPS_Albedo_Sfc_RLatLon0.09_PT045H.grib2 2026-05-01 20:55 159K
20260501T18Z_MSC_RDPS_CAPE_Sfc_RLatLon0.09_PT045H.grib2 2026-05-01 20:55 1.7M
20260501T18Z_MSC_RDPS_CIN_Sfc_RLatLon0.09_PT045H.grib2 2026-05-01 20:55 1.1M
20260501T18Z_MSC_RDPS_CloudWater_EAtm_RLatLon0.09_PT045H.grib2 2026-05-01 20:55 219K
20260501T18Z_MSC_RDPS_ConvectivePrecip-Accum_Sfc_RLatLon0.09_PT045H.grib2 2026-05-01 20:55 1.0M
20260501T18Z_MSC_RDPS_DewPointDepression_AGL-2m_RLatLon0.09_PT045H.grib2 2026-05-01 20:55 422K
20260501T18Z_MSC_RDPS_DewPointDepression_IsbL-0001_RLatLon0.09_PT045H.grib2 2026-05-01 20:55 193
20260501T18Z_MSC_RDPS_DewPointDepression_IsbL-0005_RLatLon0.09_PT045H.grib2 2026-05-01 20:55 193
20260501T18Z_MSC_RDPS_DewPointDepression_IsbL-0010_RLatLon0.09_PT045H.grib2 2026-05-01 20:55 193
20260501T18Z_MSC_RDPS_DewPointDepression_IsbL-0020_RLatLon0.09_PT045H.grib2 2026-05-01 20:55 193
20260501T18Z_MSC_RDPS_DewPointDepression_IsbL-0030_RLatLon0.09_PT045H.grib2 2026-05-01 20:55 193
20260501T18Z_MSC_RDPS_DewPointDepression_IsbL-0050_RLatLon0.09_PT045H.grib2 2026-05-01 20:55 103K
20260501T18Z_MSC_RDPS_DewPointDepression_IsbL-0100_RLatLon0.09_PT045H.grib2 2026-05-01 20:55 118K
20260501T18Z_MSC_RDPS_DewPointDepression_IsbL-0150_RLatLon0.09_PT045H.grib2 2026-05-01 20:55 146K
20260501T18Z_MSC_RDPS_DewPointDepression_IsbL-0175_RLatLon0.09_PT045H.grib2 2026-05-01 20:55 180K
20260501T18Z_MSC_RDPS_DewPointDepression_IsbL-0200_RLatLon0.09_PT045H.grib2 2026-05-01 20:55 219K
20260501T18Z_MSC_RDPS_DewPointDepression_IsbL-0225_RLatLon0.09_PT045H.grib2 2026-05-01 20:55 258K
20260501T18Z_MSC_RDPS_DewPointDepression_IsbL-0250_RLatLon0.09_PT045H.grib2 2026-05-01 20:55 294K
20260501T18Z_MSC_RDPS_DewPointDepression_IsbL-0275_RLatLon0.09_PT045H.grib2 2026-05-01 20:55 304K
20260501T18Z_MSC_RDPS_DewPointDepression_IsbL-0300_RLatLon0.09_PT045H.grib2 2026-05-01 20:55 323K
20260501T18Z_MSC_RDPS_DewPointDepression_IsbL-0350_RLatLon0.09_PT045H.grib2 2026-05-01 20:55 331K
20260501T18Z_MSC_RDPS_DewPointDepression_IsbL-0400_RLatLon0.09_PT045H.grib2 2026-05-01 20:55 338K
20260501T18Z_MSC_RDPS_DewPointDepression_IsbL-0450_RLatLon0.09_PT045H.grib2 2026-05-01 20:55 343K
20260501T18Z_MSC_RDPS_DewPointDepression_IsbL-0500_RLatLon0.09_PT045H.grib2 2026-05-01 20:55 347K
20260501T18Z_MSC_RDPS_DewPointDepression_IsbL-0550_RLatLon0.09_PT045H.grib2 2026-05-01 20:55 356K
20260501T18Z_MSC_RDPS_DewPointDepression_IsbL-0600_RLatLon0.09_PT045H.grib2 2026-05-01 20:55 363K
20260501T18Z_MSC_RDPS_DewPointDepression_IsbL-0650_RLatLon0.09_PT045H.grib2 2026-05-01 20:55 371K
20260501T18Z_MSC_RDPS_DewPointDepression_IsbL-0700_RLatLon0.09_PT045H.grib2 2026-05-01 20:55 383K
20260501T18Z_MSC_RDPS_DewPointDepression_IsbL-0750_RLatLon0.09_PT045H.grib2 2026-05-01 20:55 405K
20260501T18Z_MSC_RDPS_DewPointDepression_IsbL-0800_RLatLon0.09_PT045H.grib2 2026-05-01 20:55 441K
20260501T18Z_MSC_RDPS_DewPointDepression_IsbL-0850_RLatLon0.09_PT045H.grib2 2026-05-01 20:55 475K
20260501T18Z_MSC_RDPS_DewPointDepression_IsbL-0875_RLatLon0.09_PT045H.grib2 2026-05-01 20:55 475K
20260501T18Z_MSC_RDPS_DewPointDepression_IsbL-0900_RLatLon0.09_PT045H.grib2 2026-05-01 20:55 466K
20260501T18Z_MSC_RDPS_DewPointDepression_IsbL-0925_RLatLon0.09_PT045H.grib2 2026-05-01 20:55 453K
20260501T18Z_MSC_RDPS_DewPointDepression_IsbL-0950_RLatLon0.09_PT045H.grib2 2026-05-01 20:55 451K
20260501T18Z_MSC_RDPS_DewPointDepression_IsbL-0970_RLatLon0.09_PT045H.grib2 2026-05-01 20:55 446K
20260501T18Z_MSC_RDPS_DewPointDepression_IsbL-0985_RLatLon0.09_PT045H.grib2 2026-05-01 20:55 444K
20260501T18Z_MSC_RDPS_DewPointDepression_IsbL-1000_RLatLon0.09_PT045H.grib2 2026-05-01 20:55 440K
20260501T18Z_MSC_RDPS_DewPointDepression_IsbL-1015_RLatLon0.09_PT045H.grib2 2026-05-01 20:55 433K
20260501T18Z_MSC_RDPS_DewPoint_AGL-2m_RLatLon0.09_PT045H.grib2 2026-05-01 20:55 406K
20260501T18Z_MSC_RDPS_DownwardLongwaveRadiationFlux-Accum_Sfc_RLatLon0.09_PT045H.grib2 2026-05-01 20:55 365K
20260501T18Z_MSC_RDPS_DownwardShortwaveRadiationFlux-Accum_NTAtm_RLatLon0.09_PT045H.grib2 2026-05-01 20:55 118K
20260501T18Z_MSC_RDPS_DownwardShortwaveRadiationFlux-Accum_Sfc_RLatLon0.09_PT045H.grib2 2026-05-01 20:55 589K
20260501T18Z_MSC_RDPS_FreezingRain-Accum1h_Sfc_RLatLon0.09_PT045H.grib2 2026-05-01 20:55 24K
20260501T18Z_MSC_RDPS_FreezingRain-Accum3h_Sfc_RLatLon0.09_PT045H.grib2 2026-05-01 20:55 33K
20260501T18Z_MSC_RDPS_FreezingRain-Accum_Sfc_RLatLon0.09_PT045H.grib2 2026-05-01 20:55 153K
20260501T18Z_MSC_RDPS_GeopotentialHeight_IsbL-0001_RLatLon0.09_PT045H.grib2 2026-05-01 20:55 349K
20260501T18Z_MSC_RDPS_GeopotentialHeight_IsbL-0005_RLatLon0.09_PT045H.grib2 2026-05-01 20:55 303K
20260501T18Z_MSC_RDPS_GeopotentialHeight_IsbL-0010_RLatLon0.09_PT045H.grib2 2026-05-01 20:55 305K
20260501T18Z_MSC_RDPS_GeopotentialHeight_IsbL-0020_RLatLon0.09_PT045H.grib2 2026-05-01 20:55 401K
20260501T18Z_MSC_RDPS_GeopotentialHeight_IsbL-0030_RLatLon0.09_PT045H.grib2 2026-05-01 20:55 404K
20260501T18Z_MSC_RDPS_GeopotentialHeight_IsbL-0050_RLatLon0.09_PT045H.grib2 2026-05-01 20:55 310K
20260501T18Z_MSC_RDPS_GeopotentialHeight_IsbL-0100_RLatLon0.09_PT045H.grib2 2026-05-01 20:55 285K
20260501T18Z_MSC_RDPS_GeopotentialHeight_IsbL-0150_RLatLon0.09_PT045H.grib2 2026-05-01 20:55 229K
20260501T18Z_MSC_RDPS_GeopotentialHeight_IsbL-0175_RLatLon0.09_PT045H.grib2 2026-05-01 20:55 232K
20260501T18Z_MSC_RDPS_GeopotentialHeight_IsbL-0200_RLatLon0.09_PT045H.grib2 2026-05-01 20:55 263K
20260501T18Z_MSC_RDPS_GeopotentialHeight_IsbL-0225_RLatLon0.09_PT045H.grib2 2026-05-01 20:55 264K
20260501T18Z_MSC_RDPS_GeopotentialHeight_IsbL-0250_RLatLon0.09_PT045H.grib2 2026-05-01 20:55 265K
20260501T18Z_MSC_RDPS_GeopotentialHeight_IsbL-0275_RLatLon0.09_PT045H.grib2 2026-05-01 20:55 235K
20260501T18Z_MSC_RDPS_GeopotentialHeight_IsbL-0300_RLatLon0.09_PT045H.grib2 2026-05-01 20:55 234K
20260501T18Z_MSC_RDPS_GeopotentialHeight_IsbL-0350_RLatLon0.09_PT045H.grib2 2026-05-01 20:55 231K
20260501T18Z_MSC_RDPS_GeopotentialHeight_IsbL-0400_RLatLon0.09_PT045H.grib2 2026-05-01 20:55 227K
20260501T18Z_MSC_RDPS_GeopotentialHeight_IsbL-0450_RLatLon0.09_PT045H.grib2 2026-05-01 20:55 297K
20260501T18Z_MSC_RDPS_GeopotentialHeight_IsbL-0500_RLatLon0.09_PT045H.grib2 2026-05-01 20:55 292K
20260501T18Z_MSC_RDPS_GeopotentialHeight_IsbL-0550_RLatLon0.09_PT045H.grib2 2026-05-01 20:55 288K
20260501T18Z_MSC_RDPS_GeopotentialHeight_IsbL-0600_RLatLon0.09_PT045H.grib2 2026-05-01 20:55 283K
20260501T18Z_MSC_RDPS_GeopotentialHeight_IsbL-0650_RLatLon0.09_PT045H.grib2 2026-05-01 20:55 282K
20260501T18Z_MSC_RDPS_GeopotentialHeight_IsbL-0700_RLatLon0.09_PT045H.grib2 2026-05-01 20:55 253K
20260501T18Z_MSC_RDPS_GeopotentialHeight_IsbL-0750_RLatLon0.09_PT045H.grib2 2026-05-01 20:55 256K
20260501T18Z_MSC_RDPS_GeopotentialHeight_IsbL-0800_RLatLon0.09_PT045H.grib2 2026-05-01 20:55 348K
20260501T18Z_MSC_RDPS_GeopotentialHeight_IsbL-0850_RLatLon0.09_PT045H.grib2 2026-05-01 20:55 358K
20260501T18Z_MSC_RDPS_GeopotentialHeight_IsbL-0875_RLatLon0.09_PT045H.grib2 2026-05-01 20:55 361K
20260501T18Z_MSC_RDPS_GeopotentialHeight_IsbL-0900_RLatLon0.09_PT045H.grib2 2026-05-01 20:55 366K
20260501T18Z_MSC_RDPS_GeopotentialHeight_IsbL-0925_RLatLon0.09_PT045H.grib2 2026-05-01 20:55 370K
20260501T18Z_MSC_RDPS_GeopotentialHeight_IsbL-0950_RLatLon0.09_PT045H.grib2 2026-05-01 20:55 374K
20260501T18Z_MSC_RDPS_GeopotentialHeight_IsbL-0970_RLatLon0.09_PT045H.grib2 2026-05-01 20:55 378K
20260501T18Z_MSC_RDPS_GeopotentialHeight_IsbL-0985_RLatLon0.09_PT045H.grib2 2026-05-01 20:55 387K
20260501T18Z_MSC_RDPS_GeopotentialHeight_IsbL-1000_RLatLon0.09_PT045H.grib2 2026-05-01 20:55 400K
20260501T18Z_MSC_RDPS_GeopotentialHeight_IsbL-1015_RLatLon0.09_PT045H.grib2 2026-05-01 20:55 417K
20260501T18Z_MSC_RDPS_Humidex_Sfc_RLatLon0.09_PT045H.grib2 2026-05-01 20:55 2.4M
20260501T18Z_MSC_RDPS_IcePellets-Accum1h_Sfc_RLatLon0.09_PT045H.grib2 2026-05-01 20:55 2.6K
20260501T18Z_MSC_RDPS_IcePellets-Accum3h_Sfc_RLatLon0.09_PT045H.grib2 2026-05-01 20:55 4.4K
20260501T18Z_MSC_RDPS_IcePellets-Accum_Sfc_RLatLon0.09_PT045H.grib2 2026-05-01 20:55 21K
20260501T18Z_MSC_RDPS_KIndex_Sfc_RLatLon0.09_PT045H.grib2 2026-05-01 20:55 2.3M
20260501T18Z_MSC_RDPS_LatentHeatNetFlux_Sfc_RLatLon0.09_PT045H.grib2 2026-05-01 20:55 385K
20260501T18Z_MSC_RDPS_LiftedIndex-MU-VT_IsbL-0500_RLatLon0.09_PT045H.grib2 2026-05-01 20:55 2.4M
20260501T18Z_MSC_RDPS_NetLongwaveRadiationFlux-Accum_Sfc_RLatLon0.09_PT045H.grib2 2026-05-01 20:55 539K
20260501T18Z_MSC_RDPS_NetShortwaveRadiationFlux-Accum_Sfc_RLatLon0.09_PT045H.grib2 2026-05-01 20:55 588K
20260501T18Z_MSC_RDPS_PlanetaryBoundaryLayerHeight_Sfc_RLatLon0.09_PT045H.grib2 2026-05-01 20:55 1.2M
20260501T18Z_MSC_RDPS_Precip-Accum1h_Sfc_RLatLon0.09_PT045H.grib2 2026-05-01 20:55 1.2M
20260501T18Z_MSC_RDPS_Precip-Accum3h_Sfc_RLatLon0.09_PT045H.grib2 2026-05-01 20:55 1.4M
20260501T18Z_MSC_RDPS_Precip-Accum_Sfc_RLatLon0.09_PT045H.grib2 2026-05-01 20:55 2.0M
20260501T18Z_MSC_RDPS_PrecipRate_Sfc_RLatLon0.09_PT045H.grib2 2026-05-01 20:55 186K
20260501T18Z_MSC_RDPS_PrecipType-Instant_Sfc_RLatLon0.09_PT045H.grib2 2026-05-01 20:55 577K
20260501T18Z_MSC_RDPS_Pressure-Trend3h_Sfc_RLatLon0.09_PT045H.grib2 2026-05-01 20:55 1.2M
20260501T18Z_MSC_RDPS_Pressure_MSL_RLatLon0.09_PT045H.grib2 2026-05-01 20:55 330K
20260501T18Z_MSC_RDPS_Pressure_PVU-1.5_RLatLon0.09_PT045H.grib2 2026-05-01 20:55 2.3M
20260501T18Z_MSC_RDPS_Pressure_PVU-1_RLatLon0.09_PT045H.grib2 2026-05-01 20:55 2.4M
20260501T18Z_MSC_RDPS_Pressure_PVU-2_RLatLon0.09_PT045H.grib2 2026-05-01 20:55 2.4M
20260501T18Z_MSC_RDPS_Pressure_Sfc_RLatLon0.09_PT045H.grib2 2026-05-01 20:55 501K
20260501T18Z_MSC_RDPS_RadiativeTemp_Sfc_RLatLon0.09_PT045H.grib2 2026-05-01 20:55 317K
20260501T18Z_MSC_RDPS_Rain-Accum1h_Sfc_RLatLon0.09_PT045H.grib2 2026-05-01 20:55 599K
20260501T18Z_MSC_RDPS_Rain-Accum3h_Sfc_RLatLon0.09_PT045H.grib2 2026-05-01 20:55 698K
20260501T18Z_MSC_RDPS_Rain-Accum_Sfc_RLatLon0.09_PT045H.grib2 2026-05-01 20:55 1.6M
20260501T18Z_MSC_RDPS_RelativeHumidity_AGL-2m_RLatLon0.09_PT045H.grib2 2026-05-01 20:55 1.0M
20260501T18Z_MSC_RDPS_RelativeHumidity_IsbL-0010_RLatLon0.09_PT045H.grib2 2026-05-01 20:55 539K
20260501T18Z_MSC_RDPS_RelativeHumidity_IsbL-0020_RLatLon0.09_PT045H.grib2 2026-05-01 20:55 668K
20260501T18Z_MSC_RDPS_RelativeHumidity_IsbL-0030_RLatLon0.09_PT045H.grib2 2026-05-01 20:55 606K
20260501T18Z_MSC_RDPS_RelativeHumidity_IsbL-0050_RLatLon0.09_PT045H.grib2 2026-05-01 20:55 483K
20260501T18Z_MSC_RDPS_RelativeHumidity_IsbL-0100_RLatLon0.09_PT045H.grib2 2026-05-01 20:55 381K
20260501T18Z_MSC_RDPS_RelativeHumidity_IsbL-0150_RLatLon0.09_PT045H.grib2 2026-05-01 20:55 412K
20260501T18Z_MSC_RDPS_RelativeHumidity_IsbL-0175_RLatLon0.09_PT045H.grib2 2026-05-01 20:55 472K
20260501T18Z_MSC_RDPS_RelativeHumidity_IsbL-0200_RLatLon0.09_PT045H.grib2 2026-05-01 20:55 551K
20260501T18Z_MSC_RDPS_RelativeHumidity_IsbL-0225_RLatLon0.09_PT045H.grib2 2026-05-01 20:55 616K
20260501T18Z_MSC_RDPS_RelativeHumidity_IsbL-0250_RLatLon0.09_PT045H.grib2 2026-05-01 20:55 678K
20260501T18Z_MSC_RDPS_RelativeHumidity_IsbL-0275_RLatLon0.09_PT045H.grib2 2026-05-01 20:55 700K
20260501T18Z_MSC_RDPS_RelativeHumidity_IsbL-0300_RLatLon0.09_PT045H.grib2 2026-05-01 20:55 742K
20260501T18Z_MSC_RDPS_RelativeHumidity_IsbL-0350_RLatLon0.09_PT045H.grib2 2026-05-01 20:55 772K
20260501T18Z_MSC_RDPS_RelativeHumidity_IsbL-0400_RLatLon0.09_PT045H.grib2 2026-05-01 20:55 785K
20260501T18Z_MSC_RDPS_RelativeHumidity_IsbL-0450_RLatLon0.09_PT045H.grib2 2026-05-01 20:55 790K
20260501T18Z_MSC_RDPS_RelativeHumidity_IsbL-0500_RLatLon0.09_PT045H.grib2 2026-05-01 20:55 794K
20260501T18Z_MSC_RDPS_RelativeHumidity_IsbL-0550_RLatLon0.09_PT045H.grib2 2026-05-01 20:55 811K
20260501T18Z_MSC_RDPS_RelativeHumidity_IsbL-0600_RLatLon0.09_PT045H.grib2 2026-05-01 20:55 827K
20260501T18Z_MSC_RDPS_RelativeHumidity_IsbL-0650_RLatLon0.09_PT045H.grib2 2026-05-01 20:55 840K
20260501T18Z_MSC_RDPS_RelativeHumidity_IsbL-0700_RLatLon0.09_PT045H.grib2 2026-05-01 20:55 865K
20260501T18Z_MSC_RDPS_RelativeHumidity_IsbL-0750_RLatLon0.09_PT045H.grib2 2026-05-01 20:55 917K
20260501T18Z_MSC_RDPS_RelativeHumidity_IsbL-0800_RLatLon0.09_PT045H.grib2 2026-05-01 20:55 1.0M
20260501T18Z_MSC_RDPS_RelativeHumidity_IsbL-0850_RLatLon0.09_PT045H.grib2 2026-05-01 20:55 1.0M
20260501T18Z_MSC_RDPS_RelativeHumidity_IsbL-0875_RLatLon0.09_PT045H.grib2 2026-05-01 20:55 1.1M
20260501T18Z_MSC_RDPS_RelativeHumidity_IsbL-0900_RLatLon0.09_PT045H.grib2 2026-05-01 20:55 1.1M
20260501T18Z_MSC_RDPS_RelativeHumidity_IsbL-0925_RLatLon0.09_PT045H.grib2 2026-05-01 20:55 1.1M
20260501T18Z_MSC_RDPS_RelativeHumidity_IsbL-0950_RLatLon0.09_PT045H.grib2 2026-05-01 20:55 1.1M
20260501T18Z_MSC_RDPS_RelativeHumidity_IsbL-0970_RLatLon0.09_PT045H.grib2 2026-05-01 20:55 1.1M
20260501T18Z_MSC_RDPS_RelativeHumidity_IsbL-0985_RLatLon0.09_PT045H.grib2 2026-05-01 20:55 1.0M
20260501T18Z_MSC_RDPS_RelativeHumidity_IsbL-1000_RLatLon0.09_PT045H.grib2 2026-05-01 20:55 1.0M
20260501T18Z_MSC_RDPS_RelativeHumidity_IsbL-1015_RLatLon0.09_PT045H.grib2 2026-05-01 20:55 1.0M
20260501T18Z_MSC_RDPS_Runoff-Accum_Sfc_RLatLon0.09_PT045H.grib2 2026-05-01 20:55 73K
20260501T18Z_MSC_RDPS_SWEATIndex_Sfc_RLatLon0.09_PT045H.grib2 2026-05-01 20:55 2.4M
20260501T18Z_MSC_RDPS_SeeingIndex_EAtm_RLatLon0.09_PT045H.grib2 2026-05-01 20:55 1.0M
20260501T18Z_MSC_RDPS_SensibleHeatNetFlux_Sfc_RLatLon0.09_PT045H.grib2 2026-05-01 20:55 358K
20260501T18Z_MSC_RDPS_ShowalterIndex_IsbL-0500_RLatLon0.09_PT045H.grib2 2026-05-01 20:55 2.6M
20260501T18Z_MSC_RDPS_SkyTransparencyIndex_EAtm_RLatLon0.09_PT045H.grib2 2026-05-01 20:55 713K
20260501T18Z_MSC_RDPS_Snow-Accum1h_Sfc_RLatLon0.09_PT045H.grib2 2026-05-01 20:55 526K
20260501T18Z_MSC_RDPS_Snow-Accum3h_Sfc_RLatLon0.09_PT045H.grib2 2026-05-01 20:55 558K
20260501T18Z_MSC_RDPS_Snow-Accum_Sfc_RLatLon0.09_PT045H.grib2 2026-05-01 20:55 695K
20260501T18Z_MSC_RDPS_SnowDensity_Sfc_RLatLon0.09_PT045H.grib2 2026-05-01 20:55 172K
20260501T18Z_MSC_RDPS_SnowDepth_Sfc_RLatLon0.09_PT045H.grib2 2026-05-01 20:55 655K
20260501T18Z_MSC_RDPS_SoilTemp_DBS-0to10cm_RLatLon0.09_PT045H.grib2 2026-05-01 20:55 237K
20260501T18Z_MSC_RDPS_SoilTemp_Sfc_RLatLon0.09_PT045H.grib2 2026-05-01 20:55 290K
20260501T18Z_MSC_RDPS_SoilVolumetricIceContent_Sfc_RLatLon0.09_PT045H.grib2 2026-05-01 20:55 158K
20260501T18Z_MSC_RDPS_SoilVolumetricWaterContent_DBS-0to10cm_RLatLon0.09_PT045H.grib2 2026-05-01 20:55 273K
20260501T18Z_MSC_RDPS_SoilVolumetricWaterContent_DBS-0to1cm_RLatLon0.09_PT045H.grib2 2026-05-01 20:55 343K
20260501T18Z_MSC_RDPS_SpecificHumidity_AGL-120m_RLatLon0.09_PT045H.grib2 2026-05-01 20:55 503K
20260501T18Z_MSC_RDPS_SpecificHumidity_AGL-2m_RLatLon0.09_PT045H.grib2 2026-05-01 20:55 673K
20260501T18Z_MSC_RDPS_SpecificHumidity_AGL-40m_RLatLon0.09_PT045H.grib2 2026-05-01 20:55 510K
20260501T18Z_MSC_RDPS_SpecificHumidity_AGL-80m_RLatLon0.09_PT045H.grib2 2026-05-01 20:55 506K
20260501T18Z_MSC_RDPS_SpecificHumidity_IsbL-0001_RLatLon0.09_PT045H.grib2 2026-05-01 20:55 369K
20260501T18Z_MSC_RDPS_SpecificHumidity_IsbL-0005_RLatLon0.09_PT045H.grib2 2026-05-01 20:55 368K
20260501T18Z_MSC_RDPS_SpecificHumidity_IsbL-0010_RLatLon0.09_PT045H.grib2 2026-05-01 20:55 398K
20260501T18Z_MSC_RDPS_SpecificHumidity_IsbL-0020_RLatLon0.09_PT045H.grib2 2026-05-01 20:55 377K
20260501T18Z_MSC_RDPS_SpecificHumidity_IsbL-0030_RLatLon0.09_PT045H.grib2 2026-05-01 20:55 481K
20260501T18Z_MSC_RDPS_SpecificHumidity_IsbL-0050_RLatLon0.09_PT045H.grib2 2026-05-01 20:55 482K
20260501T18Z_MSC_RDPS_SpecificHumidity_IsbL-0100_RLatLon0.09_PT045H.grib2 2026-05-01 20:55 533K
20260501T18Z_MSC_RDPS_SpecificHumidity_IsbL-0150_RLatLon0.09_PT045H.grib2 2026-05-01 20:55 451K
20260501T18Z_MSC_RDPS_SpecificHumidity_IsbL-0175_RLatLon0.09_PT045H.grib2 2026-05-01 20:55 535K
20260501T18Z_MSC_RDPS_SpecificHumidity_IsbL-0200_RLatLon0.09_PT045H.grib2 2026-05-01 20:55 452K
20260501T18Z_MSC_RDPS_SpecificHumidity_IsbL-0225_RLatLon0.09_PT045H.grib2 2026-05-01 20:55 452K
20260501T18Z_MSC_RDPS_SpecificHumidity_IsbL-0250_RLatLon0.09_PT045H.grib2 2026-05-01 20:55 509K
20260501T18Z_MSC_RDPS_SpecificHumidity_IsbL-0275_RLatLon0.09_PT045H.grib2 2026-05-01 20:55 466K
20260501T18Z_MSC_RDPS_SpecificHumidity_IsbL-0300_RLatLon0.09_PT045H.grib2 2026-05-01 20:55 441K
20260501T18Z_MSC_RDPS_SpecificHumidity_IsbL-0350_RLatLon0.09_PT045H.grib2 2026-05-01 20:55 539K
20260501T18Z_MSC_RDPS_SpecificHumidity_IsbL-0400_RLatLon0.09_PT045H.grib2 2026-05-01 20:55 519K
20260501T18Z_MSC_RDPS_SpecificHumidity_IsbL-0450_RLatLon0.09_PT045H.grib2 2026-05-01 20:55 569K
20260501T18Z_MSC_RDPS_SpecificHumidity_IsbL-0500_RLatLon0.09_PT045H.grib2 2026-05-01 20:55 501K
20260501T18Z_MSC_RDPS_SpecificHumidity_IsbL-0550_RLatLon0.09_PT045H.grib2 2026-05-01 20:55 557K
20260501T18Z_MSC_RDPS_SpecificHumidity_IsbL-0600_RLatLon0.09_PT045H.grib2 2026-05-01 20:55 621K
20260501T18Z_MSC_RDPS_SpecificHumidity_IsbL-0650_RLatLon0.09_PT045H.grib2 2026-05-01 20:55 538K
20260501T18Z_MSC_RDPS_SpecificHumidity_IsbL-0700_RLatLon0.09_PT045H.grib2 2026-05-01 20:55 583K
20260501T18Z_MSC_RDPS_SpecificHumidity_IsbL-0750_RLatLon0.09_PT045H.grib2 2026-05-01 20:55 640K
20260501T18Z_MSC_RDPS_SpecificHumidity_IsbL-0800_RLatLon0.09_PT045H.grib2 2026-05-01 20:55 714K
20260501T18Z_MSC_RDPS_SpecificHumidity_IsbL-0850_RLatLon0.09_PT045H.grib2 2026-05-01 20:55 805K
20260501T18Z_MSC_RDPS_SpecificHumidity_IsbL-0875_RLatLon0.09_PT045H.grib2 2026-05-01 20:55 832K
20260501T18Z_MSC_RDPS_SpecificHumidity_IsbL-0900_RLatLon0.09_PT045H.grib2 2026-05-01 20:55 846K
20260501T18Z_MSC_RDPS_SpecificHumidity_IsbL-0925_RLatLon0.09_PT045H.grib2 2026-05-01 20:55 846K
20260501T18Z_MSC_RDPS_SpecificHumidity_IsbL-0950_RLatLon0.09_PT045H.grib2 2026-05-01 20:55 852K
20260501T18Z_MSC_RDPS_SpecificHumidity_IsbL-0970_RLatLon0.09_PT045H.grib2 2026-05-01 20:55 847K
20260501T18Z_MSC_RDPS_SpecificHumidity_IsbL-0985_RLatLon0.09_PT045H.grib2 2026-05-01 20:55 701K
20260501T18Z_MSC_RDPS_SpecificHumidity_IsbL-1000_RLatLon0.09_PT045H.grib2 2026-05-01 20:55 697K
20260501T18Z_MSC_RDPS_SpecificHumidity_IsbL-1015_RLatLon0.09_PT045H.grib2 2026-05-01 20:55 687K
20260501T18Z_MSC_RDPS_SpecificHumidity_Sfc_RLatLon0.09_PT045H.grib2 2026-05-01 20:55 318K
20260501T18Z_MSC_RDPS_StormRelativeHelicity_EtaL-10000_RLatLon0.09_PT045H.grib2 2026-05-01 20:55 1.0M
20260501T18Z_MSC_RDPS_StormSeverityIndex_EtaL-10000_RLatLon0.09_PT045H.grib2 2026-05-01 20:55 1.2M
20260501T18Z_MSC_RDPS_Thickness_IsbL-0850to0700_RLatLon0.09_PT045H.grib2 2026-05-01 20:55 176K
20260501T18Z_MSC_RDPS_Thickness_IsbL-1000to0500_RLatLon0.09_PT045H.grib2 2026-05-01 20:55 199K
20260501T18Z_MSC_RDPS_Thickness_IsbL-1000to0850_RLatLon0.09_PT045H.grib2 2026-05-01 20:55 266K
20260501T18Z_MSC_RDPS_TotalCloudCover_Sfc_RLatLon0.09_PT045H.grib2 2026-05-01 20:55 661K
20260501T18Z_MSC_RDPS_TotalTotalsIndex_Sfc_RLatLon0.09_PT045H.grib2 2026-05-01 20:55 2.3M
20260501T18Z_MSC_RDPS_UVIndex-ClearSky_Sfc_RLatLon0.09_PT045H.grib2 2026-05-01 20:55 180K
20260501T18Z_MSC_RDPS_UVIndex_Sfc_RLatLon0.09_PT045H.grib2 2026-05-01 20:55 424K
20260501T18Z_MSC_RDPS_UpwardLongwaveRadiationFlux_NTAtm_RLatLon0.09_PT045H.grib2 2026-05-01 20:55 488K
20260501T18Z_MSC_RDPS_UpwardShortwaveRadiationFlux_NTAtm_RLatLon0.09_PT045H.grib2 2026-05-01 20:55 469K
20260501T18Z_MSC_RDPS_VerticalVelocity_IsbL-0250_RLatLon0.09_PT045H.grib2 2026-05-01 20:55 550K
20260501T18Z_MSC_RDPS_VerticalVelocity_IsbL-0500_RLatLon0.09_PT045H.grib2 2026-05-01 20:55 677K
20260501T18Z_MSC_RDPS_VerticalVelocity_IsbL-0700_RLatLon0.09_PT045H.grib2 2026-05-01 20:55 729K
20260501T18Z_MSC_RDPS_VerticalVelocity_IsbL-0850_RLatLon0.09_PT045H.grib2 2026-05-01 20:55 698K
20260501T18Z_MSC_RDPS_VerticalWindShear_EtaL-6500_RLatLon0.09_PT045H.grib2 2026-05-01 20:55 1.2M
20260501T18Z_MSC_RDPS_WindChill_Sfc_RLatLon0.09_PT045H.grib2 2026-05-01 20:55 1.2M
20260501T18Z_MSC_RDPS_WindDir_AGL-10m_RLatLon0.09_PT045H.grib2 2026-05-01 20:55 1.0M
20260501T18Z_MSC_RDPS_WindDir_AGL-120m_RLatLon0.09_PT045H.grib2 2026-05-01 20:55 621K
20260501T18Z_MSC_RDPS_WindDir_AGL-40m_RLatLon0.09_PT045H.grib2 2026-05-01 20:55 646K
20260501T18Z_MSC_RDPS_WindDir_AGL-80m_RLatLon0.09_PT045H.grib2 2026-05-01 20:55 632K
20260501T18Z_MSC_RDPS_WindDir_IsbL-0001_RLatLon0.09_PT045H.grib2 2026-05-01 20:55 307K
20260501T18Z_MSC_RDPS_WindDir_IsbL-0005_RLatLon0.09_PT045H.grib2 2026-05-01 20:55 386K
20260501T18Z_MSC_RDPS_WindDir_IsbL-0010_RLatLon0.09_PT045H.grib2 2026-05-01 20:55 391K
20260501T18Z_MSC_RDPS_WindDir_IsbL-0020_RLatLon0.09_PT045H.grib2 2026-05-01 20:55 445K
20260501T18Z_MSC_RDPS_WindDir_IsbL-0030_RLatLon0.09_PT045H.grib2 2026-05-01 20:55 423K
20260501T18Z_MSC_RDPS_WindDir_IsbL-0050_RLatLon0.09_PT045H.grib2 2026-05-01 20:55 429K
20260501T18Z_MSC_RDPS_WindDir_IsbL-0100_RLatLon0.09_PT045H.grib2 2026-05-01 20:55 414K
20260501T18Z_MSC_RDPS_WindDir_IsbL-0150_RLatLon0.09_PT045H.grib2 2026-05-01 20:55 409K
20260501T18Z_MSC_RDPS_WindDir_IsbL-0175_RLatLon0.09_PT045H.grib2 2026-05-01 20:55 428K
20260501T18Z_MSC_RDPS_WindDir_IsbL-0200_RLatLon0.09_PT045H.grib2 2026-05-01 20:55 443K
20260501T18Z_MSC_RDPS_WindDir_IsbL-0225_RLatLon0.09_PT045H.grib2 2026-05-01 20:55 449K
20260501T18Z_MSC_RDPS_WindDir_IsbL-0250_RLatLon0.09_PT045H.grib2 2026-05-01 20:55 453K
20260501T18Z_MSC_RDPS_WindDir_IsbL-0275_RLatLon0.09_PT045H.grib2 2026-05-01 20:55 477K
20260501T18Z_MSC_RDPS_WindDir_IsbL-0300_RLatLon0.09_PT045H.grib2 2026-05-01 20:55 478K
20260501T18Z_MSC_RDPS_WindDir_IsbL-0350_RLatLon0.09_PT045H.grib2 2026-05-01 20:55 499K
20260501T18Z_MSC_RDPS_WindDir_IsbL-0400_RLatLon0.09_PT045H.grib2 2026-05-01 20:55 520K
20260501T18Z_MSC_RDPS_WindDir_IsbL-0450_RLatLon0.09_PT045H.grib2 2026-05-01 20:55 531K
20260501T18Z_MSC_RDPS_WindDir_IsbL-0500_RLatLon0.09_PT045H.grib2 2026-05-01 20:55 537K
20260501T18Z_MSC_RDPS_WindDir_IsbL-0550_RLatLon0.09_PT045H.grib2 2026-05-01 20:55 544K
20260501T18Z_MSC_RDPS_WindDir_IsbL-0600_RLatLon0.09_PT045H.grib2 2026-05-01 20:55 562K
20260501T18Z_MSC_RDPS_WindDir_IsbL-0650_RLatLon0.09_PT045H.grib2 2026-05-01 20:55 598K
20260501T18Z_MSC_RDPS_WindDir_IsbL-0700_RLatLon0.09_PT045H.grib2 2026-05-01 20:55 639K
20260501T18Z_MSC_RDPS_WindDir_IsbL-0750_RLatLon0.09_PT045H.grib2 2026-05-01 20:55 687K
20260501T18Z_MSC_RDPS_WindDir_IsbL-0800_RLatLon0.09_PT045H.grib2 2026-05-01 20:55 760K
20260501T18Z_MSC_RDPS_WindDir_IsbL-0850_RLatLon0.09_PT045H.grib2 2026-05-01 20:55 851K
20260501T18Z_MSC_RDPS_WindDir_IsbL-0875_RLatLon0.09_PT045H.grib2 2026-05-01 20:55 891K
20260501T18Z_MSC_RDPS_WindDir_IsbL-0900_RLatLon0.09_PT045H.grib2 2026-05-01 20:55 911K
20260501T18Z_MSC_RDPS_WindDir_IsbL-0925_RLatLon0.09_PT045H.grib2 2026-05-01 20:55 922K
20260501T18Z_MSC_RDPS_WindDir_IsbL-0950_RLatLon0.09_PT045H.grib2 2026-05-01 20:55 922K
20260501T18Z_MSC_RDPS_WindDir_IsbL-0970_RLatLon0.09_PT045H.grib2 2026-05-01 20:55 928K
20260501T18Z_MSC_RDPS_WindDir_IsbL-0985_RLatLon0.09_PT045H.grib2 2026-05-01 20:55 938K
20260501T18Z_MSC_RDPS_WindDir_IsbL-1000_RLatLon0.09_PT045H.grib2 2026-05-01 20:55 953K
20260501T18Z_MSC_RDPS_WindDir_IsbL-1015_RLatLon0.09_PT045H.grib2 2026-05-01 20:55 970K
20260501T18Z_MSC_RDPS_WindGust-Max_AGL-10m_RLatLon0.09_PT045H.grib2 2026-05-01 20:55 1.0M
20260501T18Z_MSC_RDPS_WindGust-Min_AGL-10m_RLatLon0.09_PT045H.grib2 2026-05-01 20:55 1.0M
20260501T18Z_MSC_RDPS_WindGust_AGL-10m_RLatLon0.09_PT045H.grib2 2026-05-01 20:55 1.0M
20260501T18Z_MSC_RDPS_WindSpeed_AGL-10m_RLatLon0.09_PT045H.grib2 2026-05-01 20:55 848K
20260501T18Z_MSC_RDPS_WindSpeed_AGL-120m_RLatLon0.09_PT045H.grib2 2026-05-01 20:55 543K
20260501T18Z_MSC_RDPS_WindSpeed_AGL-40m_RLatLon0.09_PT045H.grib2 2026-05-01 20:55 676K
20260501T18Z_MSC_RDPS_WindSpeed_AGL-80m_RLatLon0.09_PT045H.grib2 2026-05-01 20:55 542K
20260501T18Z_MSC_RDPS_WindSpeed_IsbL-0001_RLatLon0.09_PT045H.grib2 2026-05-01 20:55 256K
20260501T18Z_MSC_RDPS_WindSpeed_IsbL-0005_RLatLon0.09_PT045H.grib2 2026-05-01 20:55 348K
20260501T18Z_MSC_RDPS_WindSpeed_IsbL-0010_RLatLon0.09_PT045H.grib2 2026-05-01 20:55 399K
20260501T18Z_MSC_RDPS_WindSpeed_IsbL-0020_RLatLon0.09_PT045H.grib2 2026-05-01 20:55 423K
20260501T18Z_MSC_RDPS_WindSpeed_IsbL-0030_RLatLon0.09_PT045H.grib2 2026-05-01 20:55 324K
20260501T18Z_MSC_RDPS_WindSpeed_IsbL-0050_RLatLon0.09_PT045H.grib2 2026-05-01 20:55 353K
20260501T18Z_MSC_RDPS_WindSpeed_IsbL-0100_RLatLon0.09_PT045H.grib2 2026-05-01 20:55 476K
20260501T18Z_MSC_RDPS_WindSpeed_IsbL-0150_RLatLon0.09_PT045H.grib2 2026-05-01 20:55 380K
20260501T18Z_MSC_RDPS_WindSpeed_IsbL-0175_RLatLon0.09_PT045H.grib2 2026-05-01 20:55 424K
20260501T18Z_MSC_RDPS_WindSpeed_IsbL-0200_RLatLon0.09_PT045H.grib2 2026-05-01 20:55 441K
20260501T18Z_MSC_RDPS_WindSpeed_IsbL-0225_RLatLon0.09_PT045H.grib2 2026-05-01 20:55 449K
20260501T18Z_MSC_RDPS_WindSpeed_IsbL-0250_RLatLon0.09_PT045H.grib2 2026-05-01 20:55 451K
20260501T18Z_MSC_RDPS_WindSpeed_IsbL-0275_RLatLon0.09_PT045H.grib2 2026-05-01 20:55 468K
20260501T18Z_MSC_RDPS_WindSpeed_IsbL-0300_RLatLon0.09_PT045H.grib2 2026-05-01 20:55 465K
20260501T18Z_MSC_RDPS_WindSpeed_IsbL-0350_RLatLon0.09_PT045H.grib2 2026-05-01 20:55 460K
20260501T18Z_MSC_RDPS_WindSpeed_IsbL-0400_RLatLon0.09_PT045H.grib2 2026-05-01 20:55 464K
20260501T18Z_MSC_RDPS_WindSpeed_IsbL-0450_RLatLon0.09_PT045H.grib2 2026-05-01 20:55 465K
20260501T18Z_MSC_RDPS_WindSpeed_IsbL-0500_RLatLon0.09_PT045H.grib2 2026-05-01 20:55 462K
20260501T18Z_MSC_RDPS_WindSpeed_IsbL-0550_RLatLon0.09_PT045H.grib2 2026-05-01 20:55 463K
20260501T18Z_MSC_RDPS_WindSpeed_IsbL-0600_RLatLon0.09_PT045H.grib2 2026-05-01 20:55 588K
20260501T18Z_MSC_RDPS_WindSpeed_IsbL-0650_RLatLon0.09_PT045H.grib2 2026-05-01 20:55 606K
20260501T18Z_MSC_RDPS_WindSpeed_IsbL-0700_RLatLon0.09_PT045H.grib2 2026-05-01 20:55 630K
20260501T18Z_MSC_RDPS_WindSpeed_IsbL-0750_RLatLon0.09_PT045H.grib2 2026-05-01 20:55 707K
20260501T18Z_MSC_RDPS_WindSpeed_IsbL-0800_RLatLon0.09_PT045H.grib2 2026-05-01 20:55 758K
20260501T18Z_MSC_RDPS_WindSpeed_IsbL-0850_RLatLon0.09_PT045H.grib2 2026-05-01 20:55 822K
20260501T18Z_MSC_RDPS_WindSpeed_IsbL-0875_RLatLon0.09_PT045H.grib2 2026-05-01 20:55 847K
20260501T18Z_MSC_RDPS_WindSpeed_IsbL-0900_RLatLon0.09_PT045H.grib2 2026-05-01 20:55 860K
20260501T18Z_MSC_RDPS_WindSpeed_IsbL-0925_RLatLon0.09_PT045H.grib2 2026-05-01 20:55 870K
20260501T18Z_MSC_RDPS_WindSpeed_IsbL-0950_RLatLon0.09_PT045H.grib2 2026-05-01 20:55 868K
20260501T18Z_MSC_RDPS_WindSpeed_IsbL-0970_RLatLon0.09_PT045H.grib2 2026-05-01 20:55 865K
20260501T18Z_MSC_RDPS_WindSpeed_IsbL-0985_RLatLon0.09_PT045H.grib2 2026-05-01 20:55 860K
20260501T18Z_MSC_RDPS_WindSpeed_IsbL-1000_RLatLon0.09_PT045H.grib2 2026-05-01 20:55 855K
20260501T18Z_MSC_RDPS_WindSpeed_IsbL-1015_RLatLon0.09_PT045H.grib2 2026-05-01 20:55 846K
20260501T18Z_MSC_RDPS_WindU_AGL-10m_RLatLon0.09_PT045H.grib2 2026-05-01 20:55 435K
20260501T18Z_MSC_RDPS_WindU_AGL-120m_RLatLon0.09_PT045H.grib2 2026-05-01 20:55 422K
20260501T18Z_MSC_RDPS_WindU_AGL-40m_RLatLon0.09_PT045H.grib2 2026-05-01 20:55 540K
20260501T18Z_MSC_RDPS_WindU_AGL-80m_RLatLon0.09_PT045H.grib2 2026-05-01 20:55 422K
20260501T18Z_MSC_RDPS_WindU_IsbL-0001_RLatLon0.09_PT045H.grib2 2026-05-01 20:55 294K
20260501T18Z_MSC_RDPS_WindU_IsbL-0005_RLatLon0.09_PT045H.grib2 2026-05-01 20:55 283K
20260501T18Z_MSC_RDPS_WindU_IsbL-0010_RLatLon0.09_PT045H.grib2 2026-05-01 20:55 297K
20260501T18Z_MSC_RDPS_WindU_IsbL-0020_RLatLon0.09_PT045H.grib2 2026-05-01 20:55 316K
20260501T18Z_MSC_RDPS_WindU_IsbL-0030_RLatLon0.09_PT045H.grib2 2026-05-01 20:55 354K
20260501T18Z_MSC_RDPS_WindU_IsbL-0050_RLatLon0.09_PT045H.grib2 2026-05-01 20:55 380K
20260501T18Z_MSC_RDPS_WindU_IsbL-0100_RLatLon0.09_PT045H.grib2 2026-05-01 20:55 431K
20260501T18Z_MSC_RDPS_WindU_IsbL-0150_RLatLon0.09_PT045H.grib2 2026-05-01 20:55 394K
20260501T18Z_MSC_RDPS_WindU_IsbL-0175_RLatLon0.09_PT045H.grib2 2026-05-01 20:55 416K
20260501T18Z_MSC_RDPS_WindU_IsbL-0200_RLatLon0.09_PT045H.grib2 2026-05-01 20:55 336K
20260501T18Z_MSC_RDPS_WindU_IsbL-0225_RLatLon0.09_PT045H.grib2 2026-05-01 20:55 341K
20260501T18Z_MSC_RDPS_WindU_IsbL-0250_RLatLon0.09_PT045H.grib2 2026-05-01 20:55 342K
20260501T18Z_MSC_RDPS_WindU_IsbL-0275_RLatLon0.09_PT045H.grib2 2026-05-01 20:55 358K
20260501T18Z_MSC_RDPS_WindU_IsbL-0300_RLatLon0.09_PT045H.grib2 2026-05-01 20:55 353K
20260501T18Z_MSC_RDPS_WindU_IsbL-0350_RLatLon0.09_PT045H.grib2 2026-05-01 20:55 362K
20260501T18Z_MSC_RDPS_WindU_IsbL-0400_RLatLon0.09_PT045H.grib2 2026-05-01 20:55 469K
20260501T18Z_MSC_RDPS_WindU_IsbL-0450_RLatLon0.09_PT045H.grib2 2026-05-01 20:55 470K
20260501T18Z_MSC_RDPS_WindU_IsbL-0500_RLatLon0.09_PT045H.grib2 2026-05-01 20:55 469K
20260501T18Z_MSC_RDPS_WindU_IsbL-0550_RLatLon0.09_PT045H.grib2 2026-05-01 20:55 470K
20260501T18Z_MSC_RDPS_WindU_IsbL-0600_RLatLon0.09_PT045H.grib2 2026-05-01 20:55 477K
20260501T18Z_MSC_RDPS_WindU_IsbL-0650_RLatLon0.09_PT045H.grib2 2026-05-01 20:55 476K
20260501T18Z_MSC_RDPS_WindU_IsbL-0700_RLatLon0.09_PT045H.grib2 2026-05-01 20:55 499K
20260501T18Z_MSC_RDPS_WindU_IsbL-0750_RLatLon0.09_PT045H.grib2 2026-05-01 20:55 527K
20260501T18Z_MSC_RDPS_WindU_IsbL-0800_RLatLon0.09_PT045H.grib2 2026-05-01 20:55 571K
20260501T18Z_MSC_RDPS_WindU_IsbL-0850_RLatLon0.09_PT045H.grib2 2026-05-01 20:55 626K
20260501T18Z_MSC_RDPS_WindU_IsbL-0875_RLatLon0.09_PT045H.grib2 2026-05-01 20:55 656K
20260501T18Z_MSC_RDPS_WindU_IsbL-0900_RLatLon0.09_PT045H.grib2 2026-05-01 20:55 659K
20260501T18Z_MSC_RDPS_WindU_IsbL-0925_RLatLon0.09_PT045H.grib2 2026-05-01 20:55 666K
20260501T18Z_MSC_RDPS_WindU_IsbL-0950_RLatLon0.09_PT045H.grib2 2026-05-01 20:55 661K
20260501T18Z_MSC_RDPS_WindU_IsbL-0970_RLatLon0.09_PT045H.grib2 2026-05-01 20:55 659K
20260501T18Z_MSC_RDPS_WindU_IsbL-0985_RLatLon0.09_PT045H.grib2 2026-05-01 20:55 656K
20260501T18Z_MSC_RDPS_WindU_IsbL-1000_RLatLon0.09_PT045H.grib2 2026-05-01 20:55 792K
20260501T18Z_MSC_RDPS_WindU_IsbL-1015_RLatLon0.09_PT045H.grib2 2026-05-01 20:55 786K
20260501T18Z_MSC_RDPS_WindV_AGL-10m_RLatLon0.09_PT045H.grib2 2026-05-01 20:55 437K
20260501T18Z_MSC_RDPS_WindV_AGL-120m_RLatLon0.09_PT045H.grib2 2026-05-01 20:55 422K
20260501T18Z_MSC_RDPS_WindV_AGL-40m_RLatLon0.09_PT045H.grib2 2026-05-01 20:55 541K
20260501T18Z_MSC_RDPS_WindV_AGL-80m_RLatLon0.09_PT045H.grib2 2026-05-01 20:55 539K
20260501T18Z_MSC_RDPS_WindV_IsbL-0001_RLatLon0.09_PT045H.grib2 2026-05-01 20:55 249K
20260501T18Z_MSC_RDPS_WindV_IsbL-0005_RLatLon0.09_PT045H.grib2 2026-05-01 20:55 373K
20260501T18Z_MSC_RDPS_WindV_IsbL-0010_RLatLon0.09_PT045H.grib2 2026-05-01 20:55 300K
20260501T18Z_MSC_RDPS_WindV_IsbL-0020_RLatLon0.09_PT045H.grib2 2026-05-01 20:55 320K
20260501T18Z_MSC_RDPS_WindV_IsbL-0030_RLatLon0.09_PT045H.grib2 2026-05-01 20:55 317K
20260501T18Z_MSC_RDPS_WindV_IsbL-0050_RLatLon0.09_PT045H.grib2 2026-05-01 20:55 345K
20260501T18Z_MSC_RDPS_WindV_IsbL-0100_RLatLon0.09_PT045H.grib2 2026-05-01 20:55 429K
20260501T18Z_MSC_RDPS_WindV_IsbL-0150_RLatLon0.09_PT045H.grib2 2026-05-01 20:55 396K
20260501T18Z_MSC_RDPS_WindV_IsbL-0175_RLatLon0.09_PT045H.grib2 2026-05-01 20:55 417K
20260501T18Z_MSC_RDPS_WindV_IsbL-0200_RLatLon0.09_PT045H.grib2 2026-05-01 20:55 336K
20260501T18Z_MSC_RDPS_WindV_IsbL-0225_RLatLon0.09_PT045H.grib2 2026-05-01 20:55 366K
20260501T18Z_MSC_RDPS_WindV_IsbL-0250_RLatLon0.09_PT045H.grib2 2026-05-01 20:55 367K
20260501T18Z_MSC_RDPS_WindV_IsbL-0275_RLatLon0.09_PT045H.grib2 2026-05-01 20:55 379K
20260501T18Z_MSC_RDPS_WindV_IsbL-0300_RLatLon0.09_PT045H.grib2 2026-05-01 20:55 376K
20260501T18Z_MSC_RDPS_WindV_IsbL-0350_RLatLon0.09_PT045H.grib2 2026-05-01 20:55 361K
20260501T18Z_MSC_RDPS_WindV_IsbL-0400_RLatLon0.09_PT045H.grib2 2026-05-01 20:55 363K
20260501T18Z_MSC_RDPS_WindV_IsbL-0450_RLatLon0.09_PT045H.grib2 2026-05-01 20:55 364K
20260501T18Z_MSC_RDPS_WindV_IsbL-0500_RLatLon0.09_PT045H.grib2 2026-05-01 20:55 468K
20260501T18Z_MSC_RDPS_WindV_IsbL-0550_RLatLon0.09_PT045H.grib2 2026-05-01 20:55 468K
20260501T18Z_MSC_RDPS_WindV_IsbL-0600_RLatLon0.09_PT045H.grib2 2026-05-01 20:55 473K
20260501T18Z_MSC_RDPS_WindV_IsbL-0650_RLatLon0.09_PT045H.grib2 2026-05-01 20:55 489K
20260501T18Z_MSC_RDPS_WindV_IsbL-0700_RLatLon0.09_PT045H.grib2 2026-05-01 20:55 511K
20260501T18Z_MSC_RDPS_WindV_IsbL-0750_RLatLon0.09_PT045H.grib2 2026-05-01 20:55 537K
20260501T18Z_MSC_RDPS_WindV_IsbL-0800_RLatLon0.09_PT045H.grib2 2026-05-01 20:55 580K
20260501T18Z_MSC_RDPS_WindV_IsbL-0850_RLatLon0.09_PT045H.grib2 2026-05-01 20:55 634K
20260501T18Z_MSC_RDPS_WindV_IsbL-0875_RLatLon0.09_PT045H.grib2 2026-05-01 20:55 656K
20260501T18Z_MSC_RDPS_WindV_IsbL-0900_RLatLon0.09_PT045H.grib2 2026-05-01 20:55 665K
20260501T18Z_MSC_RDPS_WindV_IsbL-0925_RLatLon0.09_PT045H.grib2 2026-05-01 20:55 664K
20260501T18Z_MSC_RDPS_WindV_IsbL-0950_RLatLon0.09_PT045H.grib2 2026-05-01 20:55 661K
20260501T18Z_MSC_RDPS_WindV_IsbL-0970_RLatLon0.09_PT045H.grib2 2026-05-01 20:55 659K
20260501T18Z_MSC_RDPS_WindV_IsbL-0985_RLatLon0.09_PT045H.grib2 2026-05-01 20:55 656K
20260501T18Z_MSC_RDPS_WindV_IsbL-1000_RLatLon0.09_PT045H.grib2 2026-05-01 20:55 793K
20260501T18Z_MSC_RDPS_WindV_IsbL-1015_RLatLon0.09_PT045H.grib2 2026-05-01 20:55 787K